Overview Statistics Trail Chart Weather Telemetry Raw packets
 

This is the latest recevied weather packets stored in our database for station/object WABO. If no packets are shown the sender has not sent any weather packets the latest 10 day(s).

<< 8 9 10 11 12 13 14 >>
Time Temp. Humidity Pressure Rain* Wind** Luminosity Snow
1787756648 25° C 99% 1013 hPa 0 mm - - -
1787754690 26.11° C 89% 1013 hPa 0 mm - - -
1787752611 26.11° C 89% 1013 hPa 0 mm - - -
1787750640 26.11° C 89% 1013 hPa 0 mm - - -
1787748057 26.11° C 94% 1012 hPa 0 mm - - -
1787746042 26.11° C 94% 1012 hPa 0 mm - - -
1787739579 27.78° C 79% 1011 hPa 0 mm - - -
1787737586 30° C 70% 1010 hPa 0 mm - - -
1787735595 30° C 70% 1010 hPa 0 mm - - -
1787733601 30° C 75% 1010 hPa 0 mm - - -
1787731602 30° C 75% 1010 hPa 0 mm - - -
1787729616 30° C 75% 1010 hPa 0 mm - - -
1787727625 30° C 75% 1010 hPa 0 mm - - -
1787725633 27.22° C 94% 1011 hPa 0 mm - - -
1787723651 27.22° C 94% 1011 hPa 0 mm - - -
1787721668 26.11° C 94% 1011 hPa 0 mm - - -
1787719660 32.78° C 63% 1012 hPa 0 mm - - -
1787717678 32.78° C 63% 1012 hPa 0 mm - - -
1787715697 32.78° C 63% 1012 hPa 0 mm - - -
1787713726 32.78° C 63% 1012 hPa 0 mm - - -
1787711754 31.11° C 70% 1013 hPa 0 mm - - -
1787709780 31.11° C 70% 1013 hPa 0 mm - - -
1787707792 28.89° C 74% 1013 hPa 0 mm - - -
1787705813 28.89° C 74% 1013 hPa 0 mm - - -
1787703845 28.89° C 74% 1013 hPa 0 mm - - -

* Rain latest hour (hover to see other rain measurements)
** Current wind speed in m/s (hover to see current wind gust speed)